Weather History for Abilene, TX

Change the Weather History Date:

Wednesday, April 16, 2014

  Actual Average Record
Temperature  
Mean Temperature 62 °F 65 °F  
Max Temperature 76 °F 78 °F 97 °F (1967)
Min Temperature 47 °F 52 °F 34 °F (1905)
Degree Days  
Heating Degree Days 3 4  
Month to date heating degree days 80 79  
Since 1 July heating degree days 2782 2510  
Cooling Degree Days 0 3  
Month to date cooling degree days 77 40  
Year to date cooling degree days 121 74  
Growing Degree Days 10 (Base 50)    
Moisture  
Dew Point 25 °F    
Average Humidity 29    
Maximum Humidity 39    
Minimum Humidity 18    
Precipitation  
Precipitation 0.00 in 0.05 in 1.73 in (1971)
Month to date precipitation 0.21 0.75  
Year to date precipitation 1.37 4.87  
Sea Level Pressure  
Sea Level Pressure 29.87 in    
Wind  
Wind Speed 19 mph (SSE)    
Max Wind Speed 35 mph    
Max Gust Speed 43 mph    
Visibility 10 miles    
Events      
T = Trace of Precipitation, MM = Missing Value Source: NWS Daily Summary

Daily Weather History Graph

Daily Weather History Graph

Search for Another Location

Airport:

Trip Planner

Search our weather history database for the weather conditions in past years. The results will help you decide how hot, cold, wet, or windy it might be!

Date:

Astronomy

Apr. 16, 2014 Rise Set
Actual Time 7:08 AM CDT 8:09 PM CDT
Civil Twilight 6:43 AM CDT 8:34 PM CDT
Nautical Twilight 6:13 AM CDT 9:04 PM CDT
Astronomical Twilight 5:42 AM CDT 9:35 PM CDT
Moon 9:49 PM CDT (4/16) 8:00 AM CDT (4/16)
Length of Visible Light 13h 51m
Length of Day
13h 00m
Full, 98% of the Moon is Illuminated
Apr 16
Full
Apr 22
Last Quarter
Apr 29
New
May 6
First Quarter
May 14
Full

Hourly Weather History & Observations

Time (CDT) Temp. Dew Point Humidity Pressure Visibility Wind Dir Wind Speed Gust Speed Precip Events Conditions
12:52 AM 51.1 °F 19.0 °F 28% 29.99 in 10.0 mi SSE 18.4 mph 26.5 mph N/A   Clear
1:52 AM 51.1 °F 19.0 °F 28% 29.97 in 10.0 mi SSE 19.6 mph - N/A   Clear
3:52 AM 50.0 °F 19.9 °F 31% 29.93 in 10.0 mi South 15.0 mph 23.0 mph N/A   Clear
4:52 AM 50.0 °F 19.9 °F 31% 29.92 in 10.0 mi South 16.1 mph - N/A   Clear
5:52 AM 48.0 °F 19.9 °F 33% 29.93 in 10.0 mi South 15.0 mph 23.0 mph N/A   Clear
6:52 AM 46.9 °F 19.9 °F 34% 29.93 in 10.0 mi South 17.3 mph 24.2 mph N/A   Clear
7:52 AM 46.9 °F 19.9 °F 34% 29.94 in 10.0 mi South 19.6 mph 27.6 mph N/A   Clear
9:52 AM 55.0 °F 19.9 °F 25% 29.93 in 10.0 mi South 27.6 mph 39.1 mph N/A   Clear
10:52 AM 57.9 °F 21.9 °F 25% 29.94 in 10.0 mi South 25.3 mph 34.5 mph N/A   Clear
11:52 AM 61.0 °F 26.1 °F 26% 29.93 in 9.0 mi South 23.0 mph 31.1 mph N/A   Clear
1:52 PM 69.1 °F 28.9 °F 22% 29.86 in 8.0 mi South 25.3 mph 33.4 mph N/A   Clear
2:52 PM 72.0 °F 28.9 °F 20% 29.83 in 10.0 mi South 19.6 mph 38.0 mph N/A   Clear
3:52 PM 75.0 °F 28.9 °F 18% 29.81 in 10.0 mi South 19.6 mph 31.1 mph N/A   Clear
4:41 PM 75.0 °F 28.0 °F 18% 29.82 in 5.0 mi South 17.3 mph 31.1 mph N/A   Haze
4:52 PM 75.9 °F 28.9 °F 18% 29.77 in 10.0 mi South 19.6 mph 33.4 mph N/A   Clear
5:52 PM 75.0 °F 28.0 °F 18% 29.76 in 10.0 mi South 19.6 mph - N/A   Clear
6:52 PM 73.9 °F 28.9 °F 19% 29.76 in 10.0 mi SSE 21.9 mph 28.8 mph N/A   Clear
7:52 PM 71.1 °F 28.9 °F 21% 29.78 in 10.0 mi SSE 21.9 mph 28.8 mph N/A   Clear
8:52 PM 66.9 °F 30.0 °F 25% 29.80 in 10.0 mi SSE 16.1 mph - N/A   Clear
9:52 PM 64.9 °F 32.0 °F 29% 29.83 in 10.0 mi SSE 18.4 mph - N/A   Clear
10:52 PM 63.0 °F 35.1 °F 35% 29.85 in 10.0 mi SSE 18.4 mph 27.6 mph N/A   Clear
11:52 PM 60.1 °F 36.0 °F 41% 29.86 in 10.0 mi SSE 11.5 mph - N/A   Clear